Regional Weather Roundup
Issued by NWS

Home | Current Version | Previous Version | Text Only | Print | Product List | Glossary On
Versions: 1 2 3 4 5 6 7 8 9 10 11 12 13 14 15 16 17 18 19 20 21 22 23 24 25 26 27 28 29 30 31 32 33 34 35 36 37 38 39 40 41 42 43 44 45 46 47 48 49 50
000
ASUS43 KTOP 250408
RWRKS

WEATHER ROUNDUP FOR KANSAS
NATIONAL WEATHER SERVICE GOODLAND KS
1100 PM CDT FRI APR 24 2015

NOTE:  "FAIR" INDICATES FEW OR NO CLOUDS BELOW 12,000 FEET WITH NO
SIGNIFICANT WEATHER AND/OR OBSTRUCTIONS TO VISIBILITY.

KSZ001>006-013>018-027>032-041>047-250500-
NORTHWEST KANSAS

CITY           SKY/WX    TMP DP  RH WIND       PRES   REMARKS
GOODLAND       CLOUDY    51  43  74 W16       29.58R
HAYS           CLOUDY    55  48  76 NE9       29.51R
HILL CITY      LGT RAIN  59  49  69 W10       29.46F
RUSSELL        RAIN      54  54 100 E12       29.48R FOG
$$

KSZ061>065-074>080-084>089-250500-
SOUTHWEST KANSAS

CITY           SKY/WX    TMP DP  RH WIND       PRES   REMARKS
DODGE CITY     CLOUDY    56  45  66 NW13      29.54R
ELKHART          N/A     52  42  69 NE1         N/A
GARDEN CITY    CLOUDY    53  46  77 NW8       29.56R
GREAT BEND     CLOUDY    57  52  82 S6        29.46F
LIBERAL        CLOUDY    55  45  67 S6        29.57F
$$

KSZ066>073-081>083-090>101-250500-
SOUTHEAST KANSAS

CITY           SKY/WX    TMP DP  RH WIND       PRES   REMARKS
CHANUTE        MOCLDY    62  59  90 S13       29.54F
COFFEYVILLE    MOCLDY    63  59  87 S18G25    29.54F
HUTCHINSON     TSTM      59  55  87 NE13      29.49S
MEDICINE LODGE   N/A     68  59  73 SW15G29   29.47S
NEWTON         CLOUDY    59  52  77 N10       29.51F
PARSONS        PTCLDY    63  60  90 S10       29.55F
WICHITA INTL   PTCLDY    65  60  84 S18G30    29.47S
WICHITA JABRA  MOCLDY    65  59  81 S23G35    29.46F
WICHITA MCCONL MOCLDY    64  60  85 S25G33    29.47F
WINFIELD       PTCLDY    63  59  87 S20G28    29.52F
$$

KSZ007>012-019>026-033>040-048>060-102>105-250500-
NORTHEAST KANSAS

CITY           SKY/WX    TMP DP  RH WIND       PRES   REMARKS
CONCORDIA      LGT RAIN  55  53  93 SW7       29.51S FOG
EMPORIA        PTCLDY    64  59  83 S22G32    29.47F
LAWRENCE       CLOUDY    62  57  83 SE10      29.54F
MANHATTAN      RAIN      57  57 100 S8        29.46F FOG
MARYSVILLE     TSTM      57  55  94 E17       29.44F
OLATHE IND     CLOUDY    60  55  83 SE15      29.56F
OLATHE EXE     CLOUDY    60  55  83 SE12      29.57F
SALINA         CLOUDY    58  52  80 N14       29.47F
TOPEKA BILLARD PTCLDY    64  58  80 SE20G30   29.49F
TOPEKA FORBES  CLOUDY    65  58  78 SE16      29.50F
$$


USA.gov is the U.S. government's official web portal to all federal, state and local government web resources and services.